Date,TemperatureHighF,TemperatureAvgF,TemperatureLowF,DewpointHighF,DewpointAvgF,DewpointLowF,HumidityHigh,HumidityAvg,HumidityLow,PressureMaxIn,PressureMinIn,WindSpeedMaxMPH,WindSpeedAvgMPH,GustSpeedMaxMPH,PrecipitationSumIn
2013-1-1,50,47,43,49,43,31,98,87,56,30.15,29.93,2,0,2,1.21
2013-1-2,50,45,39,50,42,38,99,92,84,30.14,29.89,5,0,6,0.08
2013-1-3,49,40,31,39,34,26,95,82,51,30.31,30.09,6,0,6,0.00
2013-1-4,51,37,27,29,23,16,90,63,26,30.37,30.27,8,0,9,0.00
2013-1-5,48,37,26,36,28,22,92,70,44,30.40,30.26,2,0,2,0.03
2013-1-6,48,42,38,40,36,32,91,81,68,30.28,30.11,9,1,10,0.00
2013-1-7,54,41,29,33,31,27,92,68,39,30.39,30.22,4,0,5,0.00
2013-1-8,52,44,34,42,36,29,86,73,57,30.43,30.32,5,0,6,0.00
2013-1-9,64,56,49,54,49,40,92,79,68,30.43,30.34,3,0,3,0.00
2013-1-10,66,59,54,57,54,51,97,83,68,30.40,30.22,5,0,6,0.02
2013-1-11,66,62,57,64,61,56,99,98,90,30.23,30.08,5,0,5,0.44
2013-1-12,72,63,58,65,60,57,100,93,73,30.14,30.03,5,0,5,0.01
2013-1-13,70,64,59,63,60,57,97,88,74,30.09,29.99,6,0,7,0.04
2013-1-14,64,60,53,64,59,53,99,98,94,30.08,29.98,5,0,5,0.93
2013-1-15,63,58,52,63,57,52,100,99,98,30.07,29.93,3,0,3,1.10
2013-1-16,63,56,52,63,55,52,100,99,97,29.97,29.88,4,0,4,0.77
2013-1-17,56,49,37,56,49,34,100,98,90,30.20,29.63,10,0,10,1.43
2013-1-18,54,41,30,34,29,24,93,68,33,30.49,30.20,5,0,5,0.00
2013-1-19,52,40,29,33,30,26,95,70,36,30.46,30.22,6,0,6,0.00
2013-1-20,62,46,32,40,34,29,89,66,32,30.22,30.07,11,1,12,0.00
2013-1-21,58,43,32,35,28,17,92,60,37,30.13,30.02,10,1,13,0.00
2013-1-22,45,34,28,18,13,10,58,42,28,30.30,30.11,11,2,11,0.00
2013-1-23,48,38,27,34,22,13,68,54,41,30.37,30.16,13,1,13,0.00
2013-1-24,52,45,32,41,24,5,82,48,18,30.39,30.08,11,1,13,0.00
2013-1-25,35,30,28,34,20,9,95,68,41,30.43,30.15,8,0,9,0.00
2013-1-26,55,42,35,39,35,29,98,78,45,30.28,30.13,7,1,7,0.01
2013-1-27,48,41,34,35,32,29,87,73,58,30.49,30.27,8,0,8,0.00
2013-1-28,51,45,41,45,38,32,96,78,67,30.43,30.27,3,0,4,0.00
2013-1-29,69,55,41,61,52,40,97,89,69,30.28,29.96,3,0,4,0.03
2013-1-30,66,59,42,64,57,39,98,93,86,29.96,29.48,15,2,17,1.89
2013-1-31,46,40,33,39,26,22,89,60,39,30.12,29.70,17,3,17,0.00
2013-2-1,40,35,26,30,15,2,72,46,20,30.37,30.06,13,2,13,0.00
2013-2-2,47,34,22,38,21,6,96,65,21,30.36,30.12,8,0,8,0.31
2013-2-3,51,41,32,38,32,28,97,74,43,30.12,29.97,14,2,14,0.00
2013-2-4,49,39,29,33,28,24,84,66,45,30.13,30.01,4,0,8,0.00
2013-2-5,56,45,32,47,39,28,96,79,63,30.03,29.96,9,1,9,0.00
2013-2-6,67,51,36,45,37,30,99,66,28,30.16,30.02,6,0,7,0.00
2013-2-7,49,46,42,45,39,31,96,79,51,30.15,29.93,7,0,7,0.28
2013-2-8,56,47,38,49,42,32,98,83,51,30.14,29.90,10,1,10,0.01
2013-2-9,60,44,28,34,29,21,95,61,23,30.30,30.10,4,0,4,0.00
2013-2-10,56,47,39,47,37,28,97,71,46,30.35,30.11,7,0,7,1.37
2013-2-11,55,51,47,54,50,46,99,97,93,30.11,30.02,6,0,7,0.27
2013-2-12,57,48,43,48,40,31,95,76,43,30.09,29.84,4,0,4,0.23
2013-2-13,50,44,36,47,41,32,98,91,78,29.93,29.72,14,1,15,0.07
2013-2-14,56,42,30,37,33,29,96,73,42,30.07,29.93,8,0,8,0.00
2013-2-15,61,45,30,42,34,29,97,70,36,30.10,29.96,17,1,17,0.00
2013-2-16,42,36,29,34,22,12,83,59,35,30.11,29.91,21,2,21,0.00
2013-2-17,44,33,22,19,12,7,66,42,23,30.29,30.11,13,1,15,0.00
2013-2-18,58,40,24,29,23,16,82,53,31,30.38,30.17,7,0,7,0.00
2013-2-19,54,43,38,44,31,17,96,67,29,30.17,29.96,14,1,15,0.32
2013-2-20,56,41,30,18,13,-3,55,35,11,30.16,30.07,10,1,10,0.00
2013-2-21,62,45,30,40,23,15,85,45,22,30.20,29.96,6,0,6,0.09
2013-2-22,44,40,38,40,39,37,97,95,86,30.19,30.05,7,0,8,1.38
2013-2-23,49,44,40,47,43,40,98,97,94,30.07,29.84,6,0,6,0.49
2013-2-24,65,50,38,46,37,26,100,67,25,30.01,29.88,7,0,7,0.00
2013-2-25,51,44,37,38,31,27,94,63,47,30.05,29.89,12,1,12,0.03
2013-2-26,43,39,35,42,38,34,97,94,79,29.89,29.59,9,1,10,1.25
2013-2-27,56,46,39,38,35,32,83,66,46,29.87,29.75,13,2,13,0.00
2013-2-28,47,40,35,36,29,25,69,64,54,29.96,29.80,13,2,13,0.00
2013-3-1,42,37,33,31,29,25,81,71,62,29.98,29.92,9,1,11,0.00
2013-3-2,43,36,32,31,28,23,90,73,55,30.01,29.90,12,2,12,0.00
2013-3-3,42,33,27,23,19,18,71,58,41,30.07,29.97,12,2,13,0.00
2013-3-4,58,42,26,30,23,18,73,51,28,30.18,30.02,7,0,7,0.00
2013-3-5,62,49,38,55,42,27,92,76,62,30.07,29.64,21,2,21,0.32
2013-3-6,38,35,31,30,26,22,88,71,62,30.17,29.82,18,3,18,0.00
2013-3-7,60,42,28,35,30,25,92,67,36,30.26,30.13,9,1,9,0.00
2013-3-8,64,45,28,33,28,25,91,57,27,30.31,30.18,6,0,6,0.00
2013-3-9,62,49,35,35,30,25,71,51,33,30.33,30.20,7,0,7,0.00
2013-3-10,68,56,46,43,37,33,64,51,34,30.23,30.07,4,0,6,0.00
2013-3-11,61,55,52,56,51,43,98,87,65,30.09,29.77,6,0,8,1.31
2013-3-12,61,50,39,53,37,27,98,67,29,30.06,29.77,14,2,14,0.03
2013-3-13,52,43,35,32,26,20,79,54,32,30.22,30.05,19,2,19,0.00
2013-3-14,56,40,26,23,18,8,72,44,16,30.35,30.20,11,1,11,0.00
2013-3-15,72,53,34,44,35,20,88,54,34,30.22,29.95,11,1,12,0.00
2013-3-16,75,64,52,48,43,39,69,49,28,29.95,29.81,16,2,16,0.00
2013-3-17,70,61,51,54,48,42,80,62,49,29.96,29.85,8,1,9,0.00
2013-3-18,58,48,44,54,46,43,98,91,73,29.99,29.78,6,0,6,0.40
2013-3-19,64,52,42,46,33,20,99,57,23,30.06,29.88,15,1,15,0.00
2013-3-20,58,47,38,30,19,14,61,34,19,30.11,29.86,16,1,20,0.00
2013-3-21,47,39,30,30,15,4,64,41,24,29.96,29.85,12,2,12,0.00
2013-3-22,50,42,32,33,24,13,61,49,37,30.06,29.96,4,0,4,0.00
2013-3-23,52,47,41,49,42,32,97,86,60,30.03,29.81,4,0,5,0.71
2013-3-24,50,47,42,46,45,33,97,93,72,29.83,29.50,16,1,16,1.27
2013-3-25,42,37,32,33,26,23,77,66,52,30.04,29.64,16,3,17,0.00
2013-3-26,42,35,30,28,26,23,83,68,50,30.26,30.00,16,2,16,0.00
2013-3-27,55,41,27,26,24,20,86,54,29,30.32,30.21,12,1,12,0.00
2013-3-28,62,46,32,30,25,17,73,47,24,30.32,30.19,12,1,12,0.00
2013-3-29,66,50,35,38,31,23,80,51,27,30.34,30.17,8,0,8,0.00
2013-3-30,71,57,45,54,43,37,96,62,36,30.19,29.99,9,0,9,0.27
2013-3-31,65,59,55,59,55,54,98,88,69,30.00,29.82,7,1,9,0.44
2013-4-1,70,61,52,56,46,36,98,65,32,29.98,29.81,17,1,17,0.00
2013-4-2,67,55,46,41,32,22,68,43,23,30.13,29.98,9,1,10,0.00
2013-4-3,60,53,45,45,32,26,92,48,31,30.18,30.05,9,0,10,0.22
2013-4-4,47,42,39,44,40,36,96,90,69,30.17,29.95,9,1,12,0.26
2013-4-5,68,52,40,49,41,33,98,72,28,30.04,29.92,9,1,11,0.00
2013-4-6,73,57,39,41,37,35,92,52,27,30.18,30.04,6,0,6,0.00
2013-4-7,74,61,45,51,45,38,83,57,37,30.19,30.04,4,0,5,0.00
2013-4-8,79,66,55,58,53,47,84,63,41,30.12,30.01,6,0,7,0.00
2013-4-9,82,69,54,61,56,51,93,66,41,30.16,30.03,5,0,5,0.00
2013-4-10,85,70,55,61,57,52,95,67,41,30.08,29.89,6,0,6,0.00
2013-4-11,79,69,60,68,61,56,96,76,56,29.90,29.62,9,0,9,1.21
2013-4-12,68,63,54,63,51,38,97,69,33,29.87,29.60,10,2,11,0.21
2013-4-13,78,63,49,42,37,29,72,42,19,29.99,29.86,7,1,8,0.00
2013-4-14,63,56,47,55,46,36,95,72,47,30.03,29.90,6,0,6,0.12
2013-4-15,74,63,55,61,57,53,98,83,60,30.13,29.91,4,0,5,0.04
2013-4-16,80,68,60,64,61,57,97,80,55,30.23,30.12,6,0,6,0.00
2013-4-17,85,71,62,65,63,60,95,76,49,30.19,30.02,6,0,7,0.00
2013-4-18,80,70,62,63,61,60,96,76,53,30.05,29.87,7,0,9,0.00
2013-4-19,69,59,46,66,56,38,96,88,76,29.97,29.69,11,1,11,0.66
2013-4-20,66,52,39,39,32,24,79,50,23,30.22,29.96,8,1,8,0.00
2013-4-21,69,55,42,42,38,33,83,55,31,30.34,30.21,8,1,8,0.00
2013-4-22,70,57,47,46,42,39,75,59,40,30.31,30.13,9,0,9,0.00
2013-4-23,73,58,44,52,44,36,81,60,38,30.22,30.05,5,0,6,0.00
2013-4-24,75,62,52,61,56,49,97,82,54,30.09,30.01,7,0,7,0.11
2013-4-25,74,58,42,59,39,18,96,58,15,30.26,30.06,10,1,12,0.00
2013-4-26,74,58,41,48,40,31,85,52,31,30.37,30.24,6,0,6,0.00
2013-4-27,62,57,53,56,53,46,97,88,59,30.33,30.16,8,0,8,0.85
2013-4-28,56,54,52,55,54,51,98,97,96,30.21,30.00,5,0,5,2.69
2013-4-29,72,60,54,62,56,54,99,88,60,30.04,29.90,4,0,4,0.00
2013-4-30,79,64,50,63,57,50,98,80,47,30.08,29.93,4,0,4,0.00
2013-5-1,69,63,59,60,56,55,95,79,63,30.18,30.07,9,0,9,0.00
2013-5-2,64,60,59,59,57,55,92,88,81,30.19,30.11,9,0,9,0.00
2013-5-3,61,58,57,58,56,53,96,93,78,30.13,29.97,8,1,8,0.15
2013-5-4,57,52,49,55,51,47,98,94,72,29.97,29.83,8,1,8,1.78
2013-5-5,59,54,50,57,53,49,98,96,90,29.84,29.73,10,0,10,1.84
2013-5-6,56,51,45,52,49,45,99,93,79,29.89,29.76,3,0,3,1.85
2013-5-7,70,58,49,57,52,48,99,83,57,29.94,29.84,4,0,4,0.17
2013-5-8,75,63,52,60,55,51,97,79,52,30.02,29.91,7,0,7,0.00
2013-5-9,82,67,54,64,58,53,98,76,43,30.07,29.99,7,0,7,0.00
2013-5-10,79,67,55,65,60,54,97,80,56,30.05,29.91,4,0,5,0.00
2013-5-11,75,66,58,65,61,57,97,84,65,29.95,29.82,5,0,5,0.04
2013-5-12,69,60,50,61,46,34,97,65,33,30.06,29.87,10,1,11,0.00
2013-5-13,69,56,42,42,36,30,86,51,25,30.19,30.05,9,1,9,0.00
2013-5-14,78,61,42,56,47,38,90,63,36,30.24,30.07,5,0,6,0.00
2013-5-15,87,72,59,61,58,54,86,63,37,30.10,29.96,5,0,6,0.00
2013-5-16,83,69,60,65,61,56,90,76,51,30.04,29.94,3,0,3,0.00
2013-5-17,81,70,59,66,60,55,97,75,43,30.06,29.97,4,0,4,0.00
2013-5-18,75,68,64,67,65,62,98,91,73,30.05,29.99,3,0,3,0.22
2013-5-19,68,66,64,68,65,63,99,98,95,30.06,29.96,4,0,4,3.90
2013-5-20,85,72,61,72,67,61,100,86,65,30.08,29.96,2,0,2,0.01
2013-5-21,88,76,66,72,68,65,99,80,51,30.00,29.86,3,0,3,0.01
2013-5-22,85,72,65,72,67,63,98,84,63,29.95,29.81,4,0,4,0.00
2013-5-23,81,72,66,68,63,55,99,75,52,29.92,29.84,11,1,11,0.82
2013-5-24,75,66,57,56,50,42,89,60,34,30.16,29.92,10,1,10,0.00
2013-5-25,78,63,47,52,46,41,88,56,33,30.28,30.14,4,0,5,0.00
2013-5-26,81,66,52,57,50,46,84,59,36,30.24,30.11,5,0,5,0.00
2013-5-27,85,71,58,64,59,53,87,67,43,30.20,30.06,3,0,3,0.00
2013-5-28,85,74,65,67,62,59,88,69,46,30.16,30.07,4,0,4,0.00
2013-5-29,83,72,62,67,63,60,93,75,54,30.19,30.09,5,0,5,0.00
2013-5-30,83,72,64,68,65,62,95,80,57,30.22,30.09,6,0,6,0.00
2013-5-31,83,74,66,69,66,64,95,79,57,30.17,30.03,4,0,4,0.00
2013-6-1,82,74,67,70,67,64,93,79,63,30.07,29.94,4,0,4,0.00
2013-6-2,85,73,67,73,69,65,98,88,65,29.96,29.82,9,0,9,0.39
2013-6-3,83,72,66,74,68,64,99,87,59,29.92,29.81,5,0,5,0.02
2013-6-4,87,74,61,70,66,60,97,77,52,29.97,29.89,3,0,3,0.00
2013-6-5,82,73,66,73,69,65,97,86,70,30.00,29.86,6,0,6,0.63
2013-6-6,76,70,65,71,68,64,98,94,84,29.89,29.72,3,0,3,0.01
2013-6-7,84,72,66,72,68,64,98,89,63,29.80,29.63,7,0,9,0.38
2013-6-8,82,72,62,70,66,62,99,85,64,30.04,29.79,4,0,4,0.00
2013-6-9,85,73,67,73,70,66,98,89,63,30.06,29.96,3,0,4,0.64
2013-6-10,76,71,66,71,69,65,99,94,80,29.99,29.89,5,0,5,0.31
2013-6-11,86,77,71,76,72,70,98,84,61,29.99,29.91,7,0,7,0.11
2013-6-12,91,80,70,77,73,68,96,81,57,30.00,29.90,6,0,6,0.00
2013-6-13,88,78,70,76,72,68,98,85,59,29.91,29.68,14,1,14,0.96
2013-6-14,84,73,64,70,65,61,100,78,50,29.96,29.76,3,0,3,0.00
2013-6-15,84,73,62,66,62,58,90,71,48,30.09,29.96,4,0,4,0.00
2013-6-16,86,74,62,72,67,61,98,80,53,30.11,29.96,4,0,4,0.03
2013-6-17,84,73,68,74,70,67,99,90,72,30.03,29.89,3,0,3,0.56
2013-6-18,81,73,69,74,70,68,98,93,76,29.91,29.78,6,0,6,0.38
2013-6-19,79,73,68,71,69,67,98,87,72,30.04,29.84,3,0,3,0.00
2013-6-20,84,74,66,70,67,65,98,83,60,30.15,30.03,5,0,5,0.00
2013-6-21,84,74,66,69,66,64,96,78,51,30.20,30.10,6,0,6,0.00
2013-6-22,84,74,65,68,65,63,95,77,52,30.18,30.05,5,0,5,0.00
2013-6-23,86,75,66,73,68,64,96,81,59,30.15,30.05,3,0,3,0.01
2013-6-24,86,76,70,75,71,69,98,85,66,30.17,30.05,3,0,3,0.00
2013-6-25,86,75,68,76,71,67,98,89,65,30.11,29.98,5,0,5,0.40
2013-6-26,86,76,69,76,72,69,100,89,68,30.02,29.88,3,0,5,0.00
2013-6-27,84,78,73,76,74,71,97,86,67,29.93,29.74,7,0,7,0.00
2013-6-28,91,77,70,76,72,68,98,85,49,29.79,29.58,9,0,9,0.55
2013-6-29,86,74,66,75,68,64,99,83,50,29.67,29.61,4,0,4,0.00
2013-6-30,86,74,64,72,67,62,97,81,53,29.75,29.64,4,0,4,0.00
2013-7-1,85,72,68,72,68,66,99,90,58,29.89,29.74,5,0,5,1.03
2013-7-2,86,75,68,73,70,68,99,86,58,30.04,29.87,3,0,3,0.00
2013-7-3,75,70,66,73,69,66,99,96,85,30.13,30.02,4,0,5,2.60
2013-7-4,77,70,66,74,69,66,99,98,89,30.15,30.07,7,0,7,0.97
2013-7-5,80,72,68,73,70,67,99,94,76,30.17,30.09,4,0,4,0.95
2013-7-6,83,73,68,76,71,68,100,93,72,30.14,30.03,2,0,5,0.72
2013-7-7,76,73,70,74,72,69,99,97,90,30.12,30.05,9,0,9,0.05
2013-7-8,88,77,71,76,73,71,100,89,61,30.14,30.04,3,0,3,0.14
2013-7-9,88,77,71,78,74,70,99,90,69,30.12,30.00,4,0,4,0.00
2013-7-10,88,76,72,79,74,71,99,92,68,30.05,29.91,3,0,3,0.60
2013-7-11,79,74,71,75,72,70,99,94,84,29.92,29.82,2,0,2,0.01
2013-7-12,88,74,68,76,71,67,99,91,62,29.91,29.81,3,0,4,0.54
2013-7-13,78,71,67,72,69,66,98,92,80,30.03,29.91,6,0,6,0.01
2013-7-14,79,73,70,75,72,69,99,95,83,30.19,30.01,6,0,6,0.36
2013-7-15,84,75,70,75,72,69,99,89,71,30.25,30.16,6,0,6,0.00
2013-7-16,88,78,69,74,72,69,99,83,59,30.27,30.18,4,0,4,0.00
2013-7-17,92,76,68,77,71,67,99,86,56,30.25,30.07,5,0,5,1.87
2013-7-18,88,76,68,76,72,67,100,86,63,30.18,30.01,3,0,3,0.01
2013-7-19,90,78,70,77,73,70,99,85,57,30.07,29.93,2,0,2,0.00
2013-7-20,89,75,70,77,71,68,99,89,65,29.99,29.89,5,0,5,0.01
2013-7-21,88,76,69,77,72,68,99,87,65,29.98,29.86,3,0,4,0.12
2013-7-22,82,74,69,76,72,69,99,94,77,29.96,29.82,3,0,3,0.49
2013-7-23,80,74,69,74,71,68,99,92,76,29.91,29.78,6,0,6,0.00
2013-7-24,86,74,68,77,71,66,99,91,65,29.83,29.75,7,0,7,1.52
2013-7-25,87,74,66,74,69,66,100,87,54,29.96,29.79,3,0,4,0.00
2013-7-26,86,73,67,75,70,66,99,90,66,30.03,29.93,0,0,0,0.39
2013-7-27,79,73,69,74,71,68,100,94,82,29.97,29.86,0,0,0,0.02
2013-7-28,86,74,66,73,70,66,100,87,62,29.99,29.88,0,0,0,0.00
2013-7-29,86,73,66,70,66,61,98,81,48,30.11,29.97,0,0,0,0.00
2013-7-30,87,74,60,72,66,59,96,80,57,30.17,30.06,0,0,0,0.00
2013-7-31,77,74,71,73,71,70,97,91,84,30.09,29.91,0,0,0,0.03
2013-8-1,85,75,68,76,72,68,99,92,69,29.95,29.84,0,0,0,0.39
2013-8-2,88,75,66,75,69,64,99,84,50,29.99,29.88,0,0,0,0.00
2013-8-3,84,75,65,74,70,64,99,86,66,30.01,29.94,0,0,0,0.00
2013-8-4,87,78,70,74,71,66,96,81,59,29.97,29.90,0,0,0,0.00
2013-8-5,87,75,67,74,69,65,94,82,53,30.01,29.91,0,0,0,0.00
2013-8-6,86,78,72,76,73,70,96,85,62,29.96,29.90,0,0,0,0.00
2013-8-7,78,74,71,75,72,70,99,96,86,30.01,29.94,0,0,0,3.38
2013-8-8,81,74,71,76,73,71,99,96,85,30.02,29.96,0,0,0,0.20
2013-8-9,88,78,71,79,75,71,100,90,67,30.04,29.96,0,0,0,0.09
2013-8-10,91,78,72,78,74,72,100,90,62,30.06,29.99,0,0,0,0.06
2013-8-11,89,77,69,78,73,69,100,88,69,30.11,30.00,0,0,0,0.00
2013-8-12,89,76,70,79,73,70,99,91,64,30.06,29.93,0,0,0,0.04
2013-8-13,86,77,71,76,73,71,99,89,70,29.96,29.81,0,0,0,0.00
2013-8-14,80,74,70,73,70,67,96,88,75,29.98,29.83,0,0,0,0.00
2013-8-15,73,69,66,68,63,60,93,82,66,30.06,29.96,0,0,0,0.00
2013-8-16,69,66,63,65,62,60,93,86,76,30.09,30.01,0,0,0,0.00
2013-8-17,67,64,63,64,62,60,99,93,84,30.12,30.05,1,0,1,0.36
2013-8-18,71,68,64,70,67,64,99,98,92,30.17,30.07,0,0,0,0.89
2013-8-19,74,70,67,72,69,67,100,97,91,30.13,30.03,1,0,1,1.61
2013-8-20,78,72,68,73,70,68,100,94,84,30.14,30.05,1,0,1,0.00
2013-8-21,80,73,70,74,72,70,99,95,78,30.20,30.07,1,0,1,0.13
2013-8-22,88,74,68,77,71,68,100,92,62,30.12,30.00,2,0,2,0.14
2013-8-23,87,75,66,76,71,66,100,88,61,30.04,29.92,6,0,6,0.00
2013-8-24,82,73,67,70,68,65,98,85,65,30.22,29.99,7,0,7,0.00
2013-8-25,81,71,62,67,63,59,96,79,54,30.32,30.21,5,0,5,0.00
2013-8-26,82,70,61,69,64,60,98,84,58,30.28,30.11,5,0,5,0.00
2013-8-27,86,73,62,72,67,61,99,83,54,30.13,29.99,2,0,3,0.00
2013-8-28,90,76,66,75,70,65,99,84,52,30.01,29.91,2,0,2,0.00
2013-8-29,89,78,69,77,73,68,97,83,60,29.95,29.85,4,0,4,0.00
2013-8-30,86,77,72,76,73,71,98,89,70,29.98,29.88,3,0,3,0.00
2013-8-31,90,76,70,78,73,67,99,91,63,29.93,29.82,9,0,9,1.39
2013-9-1,86,74,68,77,72,68,100,93,71,29.90,29.80,5,0,5,0.00
2013-9-2,80,74,70,74,72,70,100,93,77,29.91,29.81,6,0,6,0.00
2013-9-3,86,76,70,76,72,68,99,86,62,29.93,29.81,5,0,5,0.00
2013-9-4,88,74,65,72,68,65,99,83,53,30.05,29.91,3,0,3,0.00
2013-9-5,87,74,66,74,69,65,99,86,58,30.09,30.00,2,0,2,0.00
2013-9-6,84,73,66,69,67,65,99,83,56,30.12,30.01,6,0,6,0.00
2013-9-7,85,73,64,71,67,63,99,84,56,30.10,29.96,4,0,4,0.00
2013-9-8,88,74,65,73,68,64,99,82,51,29.98,29.88,4,0,4,0.00
2013-9-9,87,76,67,72,69,66,98,82,56,30.07,29.95,4,0,4,0.00
2013-9-10,87,76,68,74,70,67,97,83,60,30.18,30.07,5,0,6,0.00
2013-9-11,88,75,66,73,69,65,99,83,51,30.18,30.05,2,0,2,0.00
2013-9-12,86,73,68,75,70,66,98,90,65,30.06,29.86,11,0,11,0.15
2013-9-13,84,73,62,71,65,56,98,79,50,29.87,29.77,5,0,5,0.00
2013-9-14,78,65,54,62,58,53,98,79,51,30.05,29.84,5,0,6,0.00
2013-9-15,80,69,61,70,64,59,95,84,66,30.14,30.05,5,0,5,0.00
2013-9-16,85,72,64,71,66,63,99,81,53,30.10,30.01,3,0,4,0.00
2013-9-17,74,69,66,64,62,59,93,79,65,30.22,30.07,6,0,7,0.00
2013-9-18,74,67,62,64,61,57,94,81,66,30.22,30.11,4,0,4,0.00
2013-9-19,82,69,59,68,63,58,98,84,60,30.16,30.04,3,0,3,0.00
2013-9-20,85,72,62,69,65,61,99,82,51,30.05,29.87,3,0,3,0.00
2013-9-21,70,68,62,70,66,62,99,96,88,29.89,29.64,3,0,4,1.54
2013-9-22,77,65,56,67,61,56,100,87,62,29.85,29.71,3,0,3,0.00
2013-9-23,77,66,59,65,61,58,98,85,61,29.99,29.85,4,0,4,0.00
2013-9-24,70,65,60,64,62,59,96,89,78,30.01,29.88,4,0,4,0.02
2013-9-25,65,63,60,64,62,60,99,98,96,29.88,29.80,3,0,3,1.28
2013-9-26,76,66,58,67,63,57,100,90,69,29.99,29.84,3,0,3,0.00
2013-9-27,77,66,56,64,60,55,99,84,58,30.12,29.98,4,0,5,0.00
2013-9-28,73,64,56,61,58,55,98,84,60,30.20,30.09,4,0,4,0.00
2013-9-29,72,62,54,60,57,52,98,84,58,30.13,30.01,4,0,4,0.00
2013-9-30,75,63,55,61,58,55,99,85,58,30.07,29.98,3,0,3,0.00
2013-10-1,77,64,54,65,60,53,99,86,59,30.14,30.03,2,0,3,0.00
2013-10-2,82,68,57,68,62,57,100,85,50,30.13,30.03,3,0,3,0.00
2013-10-3,83,70,60,68,64,60,99,84,52,30.11,30.03,4,0,4,0.00
2013-10-4,84,69,58,68,64,58,99,85,55,30.13,30.04,3,0,3,0.00
2013-10-5,85,70,60,69,64,60,100,84,52,30.09,29.98,4,0,4,0.00
2013-10-6,83,70,62,68,65,62,98,86,56,30.00,29.82,5,0,5,1.14
2013-10-7,74,66,59,68,62,56,99,88,55,29.92,29.77,6,0,6,0.32
2013-10-8,73,64,58,59,57,52,96,78,55,30.12,29.91,8,0,8,0.00
2013-10-9,72,61,51,58,52,46,95,74,46,30.18,30.08,7,0,7,0.00
2013-10-10,76,62,50,61,55,50,99,81,52,30.11,29.97,5,0,5,0.00
2013-10-11,79,64,52,64,56,51,98,78,45,30.02,29.92,6,0,6,0.00
2013-10-12,80,63,53,63,57,52,99,83,53,30.03,29.95,4,0,4,0.00
2013-10-16,64,64,64,63,63,63,97,97,96,29.96,29.94,0,0,1,0.01
2013-10-17,68,64,60,67,64,59,99,99,97,29.94,29.84,2,0,2,0.55
2013-10-18,70,60,53,60,57,53,100,90,59,29.98,29.88,3,0,3,0.00
2013-10-19,61,57,53,57,55,52,98,93,80,29.94,29.88,5,0,5,0.01
2013-10-20,68,53,42,52,46,34,99,79,31,30.05,29.94,2,0,2,0.01
2013-10-21,67,55,45,58,52,44,99,90,71,30.12,29.99,3,0,3,0.00
2013-10-22,70,60,54,59,55,51,99,87,57,30.02,29.81,4,0,4,0.01
2013-10-23,59,51,41,51,43,34,97,75,49,30.05,29.78,13,1,13,0.00
2013-10-24,62,48,38,44,39,35,91,74,45,30.18,30.05,5,0,5,0.00
2013-10-25,57,45,34,42,32,23,88,63,27,30.35,30.18,6,0,6,0.00
2013-10-26,57,44,32,42,36,31,94,75,50,30.34,30.15,5,0,5,0.00
2013-10-27,66,54,43,54,47,37,92,79,64,30.15,30.08,4,0,4,0.00
2013-10-28,63,57,53,58,55,51,99,94,82,30.25,30.11,3,0,3,0.13
2013-10-29,69,58,50,60,55,49,99,90,68,30.32,30.22,3,0,3,0.00
2013-10-30,75,62,54,62,58,54,99,87,58,30.27,30.12,2,0,5,0.00
2013-10-31,72,65,58,64,60,54,96,84,75,30.15,29.83,5,0,5,0.00
2013-11-1,73,65,55,65,58,48,99,79,43,29.83,29.65,6,0,0,0.00
2013-11-2,66,55,47,50,45,39,94,72,42,30.02,29.75,8,0,0,0.00
2013-11-3,63,50,41,44,40,36,94,72,39,30.30,30.02,3,0,0,0.00
2013-11-4,61,49,40,42,40,37,91,71,46,30.45,30.30,7,0,0,0.00
2013-11-5,61,50,42,46,38,33,88,66,37,30.48,30.34,6,0,0,0.00
2013-11-6,69,59,50,58,53,45,91,81,66,30.35,30.09,5,0,0,0.00
2013-11-7,65,56,41,60,49,36,98,79,47,30.16,29.99,10,1,0,0.00
2013-11-8,61,46,34,37,31,22,91,61,24,30.31,30.15,4,0,0,0.00
2013-11-9,58,47,38,41,35,30,86,64,41,30.35,30.21,3,0,0,0.00
2013-11-10,72,56,44,43,37,28,81,53,23,30.25,30.14,7,0,0,0.00
2013-11-11,62,50,39,41,36,31,90,64,34,30.31,30.16,5,0,0,0.00
2013-11-12,62,45,32,44,33,17,85,63,44,30.43,30.10,10,1,0,0.00
2013-11-13,50,36,24,28,18,10,85,54,21,30.57,30.43,4,0,0,0.00
2013-11-14,57,40,25,30,24,18,88,59,23,30.51,30.32,3,0,0,0.00
2013-11-15,50,44,34,49,40,26,97,83,53,30.33,30.16,2,0,0,0.00
2013-11-16,58,54,50,55,53,49,98,95,91,30.23,30.14,3,0,0,0.00
2013-11-17,60,58,57,60,58,55,99,97,93,30.17,29.90,3,0,2,0.39
2013-11-18,70,60,49,64,47,33,100,66,30,29.99,29.85,11,1,11,0.02
2013-11-19,58,48,37,38,34,31,80,61,42,30.18,29.97,5,0,5,0.00
2013-11-20,54,46,40,35,32,30,71,58,44,30.35,30.18,6,1,7,0.00
2013-11-21,50,49,47,49,43,34,98,81,58,30.41,30.32,7,0,7,0.00
2013-11-22,58,54,50,57,54,49,99,97,93,30.36,30.14,2,0,3,0.08
2013-11-23,60,53,39,57,46,27,99,80,50,30.20,30.07,11,1,11,0.00
2013-11-24,47,38,29,29,19,15,69,49,29,30.48,30.19,6,0,6,0.00
2013-11-25,42,36,29,31,17,11,91,48,31,30.51,30.25,7,0,7,0.02
2013-11-26,49,42,33,49,41,31,99,98,92,30.25,29.60,7,0,8,2.55
2013-11-27,46,35,25,46,29,18,99,78,60,30.24,29.60,11,2,18,0.10
2013-11-28,48,33,21,28,23,18,91,69,40,30.49,30.24,4,0,4,0.00
2013-11-29,60,40,26,31,26,19,92,63,22,30.52,30.43,3,0,3,0.00
2013-12-3,52,52,52,52,52,51,99,99,99,29.91,29.87,2,0,6,0.00
2013-12-4,60,56,52,60,56,52,100,100,99,30.02,29.90,2,0,2,0.15
2013-12-5,69,64,60,68,64,60,100,99,93,30.05,29.95,8,0,8,0.52
2013-12-6,74,68,60,68,66,59,100,91,78,30.00,29.90,13,1,13,0.36
2013-12-7,60,51,44,60,49,43,99,92,78,30.28,29.96,7,1,7,0.03
2013-12-8,49,43,39,46,42,38,98,97,90,30.31,30.19,7,1,7,0.39
2013-12-9,49,43,38,49,43,38,100,99,98,30.23,30.01,3,0,3,1.39
2013-12-10,50,44,31,50,39,26,100,83,54,30.32,29.92,16,1,16,0.23
2013-12-11,52,38,25,33,26,22,97,66,35,30.45,30.30,5,0,5,0.00
2013-12-12,50,38,30,25,17,6,71,46,18,30.42,30.32,11,1,11,0.00
2013-12-13,51,38,25,29,22,15,87,55,31,30.38,30.19,3,0,3,0.00
2013-12-14,47,45,42,47,40,28,99,86,56,30.21,29.80,5,0,5,1.20
2013-12-15,49,40,30,48,35,28,99,83,68,30.16,29.79,13,2,13,0.00
2013-12-16,55,39,29,35,30,27,94,73,36,30.24,30.15,7,1,7,0.00
2013-12-17,59,47,35,38,34,28,84,63,42,30.21,30.05,13,2,13,0.00
2013-12-18,55,43,34,29,20,6,63,42,14,30.29,30.12,10,1,12,0.00
2013-12-19,62,43,29,31,26,20,81,53,23,30.34,30.21,3,0,3,0.00
2013-12-20,58,47,35,48,40,30,89,76,59,30.24,30.13,4,0,4,0.00
2013-12-21,62,56,50,61,55,47,100,96,88,30.13,29.93,4,0,4,0.06
2013-12-22,66,60,57,65,60,56,100,99,94,30.04,29.88,8,0,8,3.78
2013-12-23,57,50,36,57,47,32,100,90,76,30.19,29.98,11,1,11,0.01
2013-12-24,41,33,26,32,24,18,92,71,44,30.40,30.17,11,1,11,0.00
2013-12-25,42,32,24,24,21,17,86,65,42,30.51,30.36,6,0,6,0.00
2013-12-26,56,39,27,31,25,22,84,59,27,30.40,30.25,8,0,8,0.00
2013-12-27,51,38,29,32,26,22,89,65,36,30.48,30.32,6,0,6,0.00
2013-12-28,46,37,29,39,32,26,97,82,59,30.41,30.03,6,0,7,0.69
2013-12-29,53,44,39,48,42,38,99,92,79,30.03,29.84,10,1,10,0.40
2013-12-30,49,44,40,44,40,38,95,88,77,30.18,30.00,7,1,7,0.00
2013-12-31,49,40,33,38,29,19,92,69,34,30.35,30.15,9,1,9,0.00
2014-1-1,49,40,32,37,32,28,90,75,54,30.37,30.13,3,0,3,0.00
2014-1-2,47,40,24,46,36,15,98,87,65,30.14,29.73,19,1,19,0.30